Temperature
11 11 11 11 11 11 11 11 12 12 12 12 12 12 12 12 12 12 12 12 12 12 12 12 12 12 12 12 12 12 12 12 12 12 12 12 12 12 11 11 11 11 11
11 11 11 11 11 11 11 11 11 11 12 12 12 12 12 11 11 11 11 11 11 11 12 12 12 12 11 11 11 11 11 11 11 11 11 11 11 11 11 11 11 11 10
11 11 11 11 11 11 11 11 11 11 11 11 11 11 11 11 11 11 11 11 11 11 11 11 11 11 11 11 11 11 11 11 11 11 10 10 10 10 10 10 10 10 10
11 11 11 10 11 11 10 11 11 11 11 10 11 11 11 11 11 11 11 11 10 11 11 11 11 11 11 11 11 10 10 10 10 10 10 10 10 9 9 9 10 9 9
10 10 10 10 10 10 10 10 10 10 10 10 10 10 10 10 10 10 10 10 10 10 10 10 10 10 10 10 10 10 10 10 10 10 10 9 9 9 9 9 9 9 9
10 10 10 10 10 10 10 10 10 10 10 10 10 10 10 10 10 10 10 9 9 9 10 10 10 10 10 10 10 10 10 10 10 10 9 9 9 9 9 8 8 9 9
10 9 9 10 10 10 10 9 9 9 9 9 9 9 9 9 9 9 9 9 9 9 9 9 9 9 9 9 10 10 10 9 9 9 9 9 9 9 8 8 8 7 8
9 9 9 9 9 9 9 9 9 9 9 9 9 9 9 9 9 9 9 9 9 9 9 9 9 9 9 9 9 9 9 9 9 9 9 9 9 8 8 8 7 7 7
9 9 9 9 9 9 9 9 9 9 9 9 9 9 9 9 9 9 9 9 8 8 8 8 8 9 9 9 9 9 9 9 9 9 9 9 8 8 8 7 7 7 6
8 8 9 9 9 9 8 8 8 8 8 8 8 8 8 8 8 8 8 8 8 8 8 8 8 8 8 8 8 8 8 8 8 8 8 8 8 8 7 7 7 6 6
8 8 8 8 8 8 8 8 8 8 8 8 8 8 8 8 8 8 8 8 7 7 7 7 7 8 8 8 8 8 8 8 8 8 8 8 7 7 7 7 7 6 6
7 7 8 8 8 8 8 7 8 8 8 8 8 7 7 7 7 7 7 7 7 7 7 7 7 7 7 7 7 7 7 7 7 7 7 7 7 7 6 6 6 6 6
7 7 7 7 7 7 7 7 7 7 7 7 7 7 7 7 7 7 7 7 7 7 7 7 7 6 6 7 7 7 7 7 7 7 7 7 6 6 6 6 6 6 5
7 7 7 7 7 7 6 7 7 7 7 7 6 6 6 6 6 6 6 6 6 6 6 6 6 6 6 6 6 6 6 6 6 6 6 6 6 6 6 6 5 5 5
6 6 6 6 6 6 6 6 6 6 6 6 6 6 6 6 6 6 6 6 6 6 5 5 5 5 5 5 5 5 5 6 6 5 6 5 5 5 5 5 5 4 4
6 6 6 5 5 5 5 5 5 5 5 5 5 5 5 5 5 5 5 5 5 5 5 5 5 5 5 5 5 5 5 5 5 5 5 5 5 5 5 4 4 4 4
5 5 5 5 5 5 5 5 5 5 5 5 5 5 5 4 4 4 4 5 4 4 5 4 4 4 4 4 4 4 4 4 4 4 4 4 4 4 4 4 4 3 3
5 5 5 5 5 5 4 4 4 4 4 4 4 4 4 4 4 4 4 4 4 4 4 4 4 4 4 4 4 3 3 3 4 4 4 4 4 4 3 3 3 3 3
4 4 4 4 4 4 4 4 3 3 3 3 3 3 3 3 3 3 3 3 3 3 3 3 3 3 3 3 3 3 3 3 3 3 3 3 3 3 3 3 2 2 2
3 3 3 3 3 3 3 3 3 3 3 3 3 2 2 2 2 2 2 2 2 2 2 2 3 3 3 3 3 2 2 2 3 3 2 2 2 2 2 2 2 2 2
3 3 3 3 3 3 2 2 2 2 2 2 2 2 2 2 2 2 2 2 2 2 2 2 2 2 2 2 2 2 2 2 2 2 2 2 2 2 1 1 1 1 1
2 2 2 2 2 2 2 2 2 2 2 1 1 1 1 1 1 1 1 1 1 1 1 1 1 1 2 1 1 1 1 1 1 1 1 1 1 1 1 1 1 0 0
1 1 1 1 1 1 1 1 1 1 1 1 1 1 1 1 1 1 1 1 1 1 1 1 1 1 1 1 1 1 1 1 1 1 1 0 0 0 0 0 -0 -0 -0
0 0 0 0 0 0 1 1 1 1 0 0 0 0 0 0 0 0 0 0 0 0 0 -0 -0 0 0 0 0 0 0 0 -0 -0 -0 -0 -0 -0 -0 -0 -0 -1 -1
-0 -0 -0 -0 -0 -0 -0 -0 -0 -0 -0 -0 -0 -0 -0 -0 -0 -0 -0 -0 -0 -0 -1 -1 -1 -1 -1 -1 -1 -1 -1 -1 -1 -1 -1 -1 -1 -1 -1 -1 -1 -1 -1
-1 -1 -1 -1 -1 -1 -1 -1 -1 -1 -1 -1 -1 -1 -1 -1 -1 -1 -1 -1 -1 -1 -1 -1 -1 -1 -1 -1 -1 -1 -2 -2 -2 -2 -2 -2 -2 -2 -1 -1 -2 -2 -2
Wind_Speed
3 1 2 3 3 3 3 3 4 3 3 2 2 2 2 1 2 3 4 5 5 6 6 4 4 3 3 3 2 2 2 1 1 2 2 3 2 2 1 1 1 1 1
1 1 2 3 3 3 3 4 3 3 2 2 2 2 2 1 1 2 2 3 4 5 5 5 4 4 3 3 2 2 2 1 1 2 2 1 3 3 2 2 1 1 2
4 3 3 2 3 3 3 3 3 3 3 3 3 3 3 2 2 1 1 1 3 4 4 4 4 4 4 4 3 3 3 2 1 1 3 2 2 1 2 2 2 2 2
4 4 4 3 3 3 3 3 3 3 3 4 4 4 3 2 1 1 1 1 2 2 3 4 4 4 4 4 4 3 3 3 2 0 0 1 2 1 1 2 2 3 2
4 4 4 4 3 2 2 2 3 3 3 3 4 4 3 2 1 1 1 1 1 1 2 3 4 3 3 4 4 3 3 3 3 2 1 1 1 1 2 2 2 3 2
3 4 3 3 2 2 2 2 3 3 3 3 3 4 4 3 2 2 1 1 0 0 1 2 3 3 3 3 4 4 3 3 3 3 2 2 2 2 1 2 2 3 3
4 4 4 3 3 2 2 2 3 2 2 2 2 2 3 4 3 3 3 2 1 1 1 1 2 3 3 3 3 3 4 4 4 4 3 2 3 2 2 2 2 2 2
3 4 5 4 3 3 3 2 2 1 1 2 1 1 2 2 2 3 2 2 2 2 1 2 2 3 3 3 3 3 3 4 4 4 3 3 2 2 2 2 2 1 2
2 2 3 3 3 3 3 3 3 2 2 2 1 1 1 2 2 2 2 2 2 2 1 2 2 2 2 3 3 3 3 4 4 4 3 3 2 2 2 2 3 3 2
2 2 2 3 3 3 2 2 3 3 2 2 2 1 1 2 2 2 3 3 3 2 2 2 3 2 2 2 3 2 3 3 3 3 3 2 2 2 2 2 2 3 3
3 2 3 3 2 2 2 2 2 2 2 2 1 1 1 1 1 2 3 3 2 2 2 3 2 2 2 2 3 3 3 3 3 3 3 3 2 2 2 2 2 2 3
2 2 2 2 1 1 1 2 2 2 2 1 1 1 1 1 2 2 2 3 3 2 2 2 2 2 2 2 3 4 3 3 3 3 3 3 2 2 2 2 2 3 3
1 1 0 1 1 2 2 2 2 3 2 2 1 1 1 1 2 2 2 2 2 2 2 2 3 3 3 3 3 3 4 4 4 4 4 3 3 3 2 2 2 2 2
1 1 1 2 2 2 2 2 3 3 2 2 2 2 2 2 2 2 2 2 2 3 3 3 3 3 3 3 3 3 4 4 4 4 4 4 4 4 4 3 3 3 2
2 2 3 3 2 2 2 2 3 3 2 2 2 3 2 2 1 1 2 1 2 2 3 2 2 2 3 3 3 3 4 4 4 3 3 4 5 5 4 3 3 3 2
4 4 3 3 3 3 3 2 3 3 3 3 3 2 2 1 1 1 2 1 1 2 2 2 2 2 3 4 5 4 4 4 4 4 3 3 4 5 5 5 5 5 4
4 4 4 4 4 4 4 4 4 2 2 3 2 2 2 2 2 1 2 2 2 2 2 2 2 3 4 5 5 6 4 4 4 4 4 3 3 4 3 4 4 5 6
3 3 3 3 3 3 2 2 2 2 2 2 2 2 2 2 2 2 2 3 3 3 3 3 3 3 4 5 5 5 4 4 4 4 4 4 4 4 3 3 2 3 4
3 3 3 3 2 2 2 1 1 1 2 3 3 3 3 3 3 3 3 3 3 3 3 3 3 4 4 5 6 5 3 3 4 4 4 5 5 6 6 3 3 4 4
2 2 2 1 1 2 1 1 2 2 3 4 4 4 4 4 4 5 4 3 3 4 4 4 4 4 4 6 7 6 3 4 4 3 4 6 6 7 7 4 4 5 5
3 2 1 1 2 2 1 2 2 4 4 4 3 3 4 4 4 4 3 3 3 3 3 4 4 4 5 6 7 7 3 4 4 4 4 4 7 8 9 7 5 8 6
3 2 2 2 3 2 2 2 4 4 3 3 3 3 4 3 3 3 3 3 3 3 4 3 4 4 4 6 6 8 7 6 5 5 4 5 8 9 9 7 7 9 7
3 2 2 3 3 3 2 4 5 4 3 3 3 4 4 3 3 4 4 3 3 3 3 3 4 4 4 5 8 8 9 9 6 5 7 8 9 9 7 8 9 8 5
4 3 2 3 4 4 3 4 4 3 2 3 4 3 4 4 4 3 4 4 4 4 4 4 5 5 4 4 4 4 5 6 6 5 7 8 8 7 7 7 6 5 5
3 3 3 4 5 4 4 4 3 2 3 3 3 3 4 4 4 4 4 5 5 6 6 5 5 5 6 7 9 6 5 4 5 4 3 3 3 4 4 4 4 4 5
2 3 3 4 4 4 5 5 4 3 3 4 4 3 3 3 3 4 4 6 7 9 10 9 8 7 9 11 11 11 11 11 10 6 5 6 6 6 6 6 5 5 6
Wind_Direction
248 208 152 133 113 100 108 126 117 119 120 114 115 145 156 151 150 153 149 151 154 159 156 157 157 159 166 171 159 146 151 146 111 75 26 3 12 26 19 35 64 27 354
294 173 132 124 122 128 132 118 117 122 130 137 151 150 141 138 154 161 151 158 157 155 161 163 166 166 163 157 150 134 151 163 125 117 112 13 350 352 351 10 43 19 26
201 184 144 144 134 144 151 139 123 114 110 111 108 80 70 69 67 106 155 160 163 161 155 161 165 170 168 173 173 164 152 168 172 126 140 145 229 302 333 350 7 12 18
190 176 162 167 168 181 166 140 129 118 117 118 121 131 133 140 179 183 182 162 157 163 169 162 167 179 177 174 179 172 163 158 171 171 96 161 161 174 307 328 340 357 357
177 173 172 174 173 165 149 136 122 116 115 131 141 141 132 140 137 117 123 160 147 178 179 175 167 175 182 179 174 166 168 165 173 170 160 107 95 151 184 258 306 331 315
169 160 146 132 119 109 116 125 127 125 125 129 137 144 142 137 125 133 148 195 185 220 206 179 176 174 181 189 183 177 178 179 173 172 166 169 175 186 181 223 260 286 292
170 158 146 138 131 128 120 119 122 111 116 123 138 153 157 153 165 185 186 188 197 221 241 193 184 181 183 195 181 177 193 188 182 188 191 190 194 187 184 197 240 281 296
175 176 173 165 160 156 147 140 138 126 142 150 167 167 172 168 185 198 186 194 205 213 214 208 201 192 183 187 181 183 194 185 189 196 193 193 205 192 186 182 189 281 291
167 168 167 166 167 170 175 173 166 162 175 178 172 181 204 200 205 205 190 196 205 201 189 199 198 199 183 182 185 188 195 189 193 197 198 203 210 197 195 185 180 183 241
155 155 170 175 177 182 180 171 177 184 191 190 197 197 223 228 215 191 188 194 204 195 188 211 204 199 183 175 188 191 194 191 198 193 194 207 214 196 192 188 188 188 207
193 201 203 200 187 164 163 172 180 176 189 199 205 201 221 226 198 186 197 194 195 193 195 209 209 208 200 187 189 195 190 188 199 199 194 213 202 193 202 194 193 204 201
200 207 200 183 179 197 206 199 191 189 204 201 190 211 231 195 186 189 196 191 192 196 193 201 207 218 217 204 195 193 194 194 201 207 196 222 212 205 210 205 212 220 215
207 213 222 212 222 221 216 218 212 210 202 173 161 180 220 200 192 192 193 191 191 195 191 191 210 223 227 219 211 198 199 203 208 208 202 214 206 221 222 216 221 232 236
219 216 233 248 251 250 236 233 228 215 200 176 174 192 219 221 210 194 185 195 194 194 202 205 214 218 224 224 222 214 212 213 220 218 212 214 212 219 221 223 223 224 229
243 236 241 252 258 259 268 256 242 224 200 182 192 214 223 213 191 183 187 190 189 197 202 205 218 225 225 226 223 223 219 215 223 227 222 221 226 230 228 228 219 210 220
248 244 247 244 243 241 242 249 246 235 205 194 204 206 199 191 202 214 197 191 206 213 199 203 219 233 249 257 245 229 219 218 218 227 234 232 232 241 248 247 238 223 219
257 249 247 242 239 239 234 235 241 227 204 209 214 205 197 199 219 222 205 209 220 223 223 223 222 240 258 270 269 253 228 218 220 220 224 241 245 251 236 255 263 258 257
264 261 250 253 259 263 263 252 251 212 206 216 230 228 220 217 222 218 227 234 228 224 231 233 231 239 256 268 273 265 235 216 222 223 222 226 235 237 231 230 249 256 262
262 263 251 243 246 262 269 253 261 240 224 230 235 233 224 221 222 231 244 247 233 236 237 233 231 238 257 266 270 268 222 221 233 232 226 226 228 246 251 234 240 261 270
295 291 281 297 275 269 249 217 240 241 244 241 238 232 222 220 223 231 242 249 239 238 241 239 232 233 248 266 272 269 227 228 238 239 236 242 244 251 254 233 229 250 259
301 299 295 291 273 266 223 229 243 249 257 256 247 241 232 228 227 230 237 244 247 245 244 248 251 243 248 263 268 265 238 229 235 241 244 244 257 260 260 253 238 248 255
303 306 308 298 291 274 233 244 256 262 266 263 251 250 247 244 240 232 245 247 244 249 252 253 264 256 253 260 264 264 258 252 238 242 242 243 256 260 261 258 253 258 261
277 282 283 297 298 280 243 246 261 264 261 263 255 253 256 252 242 233 239 249 246 245 252 247 257 266 259 258 265 267 266 264 256 247 247 251 257 258 256 253 255 257 244
269 273 277 286 291 288 272 254 261 257 247 259 265 262 257 255 252 244 234 232 236 242 247 247 252 263 263 256 251 250 260 265 267 261 255 258 260 258 253 254 254 242 236
261 253 254 262 273 284 288 281 267 253 252 259 260 262 256 251 254 250 240 236 235 234 240 243 241 249 263 263 262 259 252 244 247 252 248 243 245 245 247 245 242 238 239
266 268 271 271 280 286 287 287 276 250 247 259 260 258 258 258 255 259 273 258 251 262 262 260 257 259 261 271 271 270 268 265 259 258 244 243 242 243 244 244 246 240 236
Height
1480 1480 1481 1481 1481 1482 1483 1484 1485 1487 1488 1489 1490 1491 1492 1494 1496 1497 1499 1501 1502 1504 1506 1507 1509 1510 1512 1513 1514 1515 1516 1517 1518 1519 1519 1520 1521 1521 1522 1522 1522 1522 1522
1478 1478 1479 1479 1480 1481 1482 1482 1484 1485 1486 1487 1488 1489 1491 1492 1494 1495 1497 1498 1500 1502 1503 1505 1506 1507 1509 1510 1511 1512 1513 1514 1515 1516 1516 1517 1519 1519 1519 1519 1520 1520 1520
1476 1476 1477 1478 1479 1481 1481 1481 1482 1483 1484 1485 1487 1488 1489 1491 1492 1493 1494 1496 1497 1499 1500 1502 1503 1505 1506 1507 1508 1510 1511 1511 1512 1513 1514 1515 1515 1516 1516 1517 1517 1517 1517
1474 1475 1476 1478 1478 1480 1481 1481 1482 1482 1483 1484 1485 1486 1487 1488 1490 1491 1492 1493 1495 1496 1497 1499 1500 1502 1503 1504 1505 1507 1508 1509 1509 1511 1512 1513 1513 1514 1513 1514 1515 1515 1515
1473 1474 1475 1477 1478 1479 1479 1480 1480 1481 1482 1483 1484 1485 1486 1487 1489 1489 1490 1491 1492 1493 1495 1496 1498 1499 1500 1501 1503 1504 1505 1506 1507 1508 1509 1510 1510 1511 1511 1511 1511 1512 1512
1472 1473 1474 1476 1477 1478 1479 1479 1480 1480 1481 1482 1483 1484 1484 1486 1487 1487 1488 1489 1490 1491 1492 1493 1495 1496 1498 1499 1500 1501 1502 1504 1505 1505 1506 1507 1507 1507 1508 1508 1507 1508 1508
1470 1471 1473 1474 1475 1476 1477 1478 1478 1479 1480 1481 1481 1482 1483 1484 1484 1485 1486 1487 1488 1489 1490 1491 1492 1493 1495 1496 1497 1498 1500 1501 1502 1502 1503 1504 1505 1505 1505 1505 1505 1504 1504
1469 1470 1471 1473 1474 1475 1476 1477 1477 1478 1479 1480 1480 1481 1481 1482 1483 1483 1484 1485 1486 1486 1487 1488 1489 1490 1491 1492 1494 1495 1496 1497 1498 1499 1500 1501 1501 1502 1502 1502 1502 1501 1501
1468 1469 1470 1471 1473 1474 1475 1476 1476 1477 1478 1478 1479 1479 1479 1479 1480 1481 1482 1483 1484 1484 1485 1486 1486 1487 1488 1489 1490 1491 1492 1493 1495 1495 1496 1497 1497 1498 1498 1499 1499 1499 1497
1467 1468 1470 1471 1472 1473 1474 1475 1475 1476 1476 1477 1477 1477 1477 1477 1477 1478 1478 1479 1480 1481 1482 1483 1483 1484 1484 1485 1487 1487 1488 1489 1490 1491 1492 1493 1493 1493 1494 1494 1495 1495 1495
1466 1467 1468 1470 1471 1472 1472 1473 1474 1474 1474 1475 1475 1475 1474 1474 1474 1474 1475 1476 1477 1478 1479 1480 1480 1480 1481 1481 1482 1483 1484 1485 1486 1487 1487 1488 1488 1489 1489 1490 1490 1491 1491
1465 1466 1467 1468 1469 1469 1470 1471 1471 1472 1472 1473 1473 1472 1472 1471 1471 1471 1472 1473 1474 1475 1476 1477 1477 1477 1477 1477 1478 1479 1480 1480 1482 1482 1483 1484 1484 1484 1485 1486 1486 1486 1486
1464 1465 1465 1466 1466 1467 1468 1468 1469 1469 1470 1470 1470 1470 1469 1468 1468 1468 1469 1470 1471 1472 1473 1473 1474 1473 1474 1474 1474 1474 1476 1477 1478 1479 1479 1480 1480 1481 1481 1481 1482 1482 1482
1462 1463 1463 1464 1464 1465 1465 1465 1466 1466 1467 1467 1467 1467 1466 1466 1465 1465 1466 1467 1468 1468 1469 1470 1470 1470 1470 1470 1470 1470 1472 1472 1474 1474 1475 1475 1476 1476 1477 1477 1477 1477 1477
1461 1461 1461 1461 1462 1462 1462 1462 1462 1463 1463 1463 1463 1463 1463 1463 1463 1463 1464 1464 1464 1465 1465 1466 1466 1466 1466 1466 1466 1466 1467 1468 1469 1470 1470 1470 1471 1472 1472 1472 1472 1472 1472
1458 1459 1459 1459 1459 1459 1459 1459 1459 1460 1460 1460 1460 1460 1460 1460 1460 1460 1461 1461 1461 1461 1461 1462 1462 1462 1462 1462 1462 1463 1463 1464 1464 1464 1465 1466 1467 1467 1467 1467 1467 1468 1467
1456 1456 1456 1456 1456 1456 1456 1456 1456 1456 1456 1456 1456 1456 1457 1456 1457 1457 1457 1457 1457 1458 1458 1458 1458 1458 1458 1458 1458 1458 1459 1459 1459 1460 1460 1461 1461 1461 1461 1462 1462 1462 1463
1453 1453 1454 1454 1453 1453 1453 1453 1453 1452 1453 1453 1453 1453 1453 1453 1453 1453 1453 1453 1454 1454 1453 1454 1454 1454 1454 1454 1454 1455 1454 1454 1454 1455 1455 1455 1455 1456 1456 1456 1456 1456 1457
1450 1450 1450 1450 1450 1450 1450 1449 1449 1449 1449 1449 1449 1449 1449 1449 1449 1449 1449 1449 1449 1449 1449 1449 1449 1449 1449 1450 1450 1450 1450 1449 1450 1450 1450 1450 1450 1450 1451 1451 1450 1450 1451
1448 1447 1447 1447 1447 1447 1447 1446 1445 1445 1445 1445 1445 1445 1445 1445 1445 1444 1444 1444 1444 1444 1444 1444 1444 1445 1445 1445 1445 1445 1445 1444 1444 1444 1445 1445 1445 1445 1445 1445 1445 1444 1444
1445 1444 1444 1444 1443 1443 1443 1442 1442 1441 1441 1441 1440 1440 1441 1441 1440 1440 1440 1440 1439 1439 1439 1439 1439 1440 1440 1440 1440 1440 1440 1439 1439 1438 1439 1439 1439 1439 1439 1439 1439 1439 1439
1441 1441 1440 1440 1440 1440 1439 1438 1438 1437 1437 1437 1436 1436 1436 1436 1436 1435 1435 1435 1435 1434 1434 1434 1434 1434 1435 1435 1435 1435 1434 1434 1434 1433 1433 1433 1433 1434 1434 1434 1433 1434 1433
1438 1438 1437 1436 1436 1436 1436 1435 1434 1433 1433 1433 1432 1432 1431 1431 1431 1431 1431 1431 1430 1430 1429 1429 1428 1428 1429 1429 1429 1429 1429 1429 1428 1427 1427 1427 1428 1428 1427 1427 1427 1428 1427
1435 1434 1434 1433 1432 1432 1431 1431 1430 1430 1429 1428 1428 1428 1427 1427 1427 1427 1426 1426 1425 1425 1424 1424 1423 1423 1423 1423 1423 1423 1423 1422 1422 1422 1421 1422 1422 1422 1421 1421 1421 1421 1421
1431 1431 1430 1429 1429 1428 1427 1427 1426 1426 1425 1425 1424 1424 1423 1423 1422 1422 1422 1421 1421 1421 1420 1419 1418 1418 1417 1417 1417 1417 1416 1416 1416 1416 1415 1415 1415 1415 1415 1414 1414 1414 1414
1427 1426 1426 1425 1424 1424 1423 1423 1423 1422 1421 1421 1420 1419 1419 1418 1418 1417 1416 1416 1416 1415 1415 1414 1413 1412 1412 1412 1411 1411 1411 1410 1410 1410 1408 1408 1408 1408 1407 1407 1407 1407 1407